Meteo Giornale » Osservazioni meteo Francia » Chambery-Aix-Les-Bains

ore: 11:30 - Osservazioni Meteo Chambery-Aix-Les-Bains
Lat. 45° 39' N Lon. 5° 53' E Alt. 235 metri s.l.m.

nebbia Europe/Paris

2 °C

Nebbia

Temp. 24 Ore

-2 °C

10 °C

Nord

3.7 Km/h

Dew point 2 °C

Umidità 100 %

Visibilità  0.4 Km

Il sole sorge alle ore 07:48

Il sole tramonta alle ore 16:58

Data e Ora Cielo e Fenomeni T °C DP °C Um. % Pres. hPa Vis. km Vento km/h
Oggi h: 11:30 nebbia Nebbia 2 2 100 1022 0.4 N 3.7
Oggi h: 11:00 nebbia Nebbia 2 2 100 1022 0.35 N 3.7
Oggi h: 10:30 nebbia Nebbia 2 2 100 1022 0.25 N 3.7
Oggi h: 10:00 nebbia Nebbia 2 2 100 1022 0.3 N 3.7
Oggi h: 09:30 nebbia Nebbia 1 1 100 1022 0.3 N 3.7
Oggi h: 09:00 nebbia Nebbia 1 1 100 1022 0.35 N 3.7
Oggi h: 08:30 nebbia Nebbia 1 1 100 1022 0.4 N 5.5
Oggi h: 08:00 nebbia Banco di Nebbia 1 1 100 1022 0.7 N 3.7
Oggi h: 07:30 foschia Foschia 0 0 100 1022 2 N 5.5
Oggi h: 07:00 foschia Foschia 0 0 100 1022 2 N 0
Oggi h: 06:30 nebbia Nebbia Congelantesi -0 -0 100 1022 0.45 N 1.8
Oggi h: 06:00 nebbia Nebbia Congelantesi -1 -1 100 1021 0.35 N 3.7
Oggi h: 04:00 foschia Foschia -2 -2 100 1021 3 N 3.7
Oggi h: 03:30 nebbia Banco di Nebbia -2 -2 100 1021 0.75 N 3.7
Oggi h: 03:00 foschia Foschia -2 -2 100 1022 4 N 3.7
Oggi h: 02:30 foschia Foschia -2 -2 100 1022 3 N 1.8
Oggi h: 02:00 foschia Foschia -1 -2 92 1022 3 N 3.7
Oggi h: 01:30 foschia Foschia -1 -1 100 1022 1 N 3.7
Oggi h: 01:00 nebbia Banco di Nebbia -1 -1 100 1022 0.8 N 3.7
Oggi h: 00:30 nebbia Nebbia Congelantesi -2 -2 100 1023 0.55 N 3.7
Oggi h: 00:00 nebbia Nebbia Congelantesi -1 -1 100 1023 0.7 N 3.7
Ieri h: 23:30 foschia Foschia -1 -1 100 1023 3 N 3.7
Ieri h: 23:00 nebbia Banco di Nebbia -0 -1 92 1023 0.9 N 3.7
Ieri h: 22:30 foschia Foschia 0 0 100 1023 3 N 1.8
Ieri h: 22:00 foschia Foschia -0 -0 100 1023 5 N 3.7
Ieri h: 21:30 foschia Foschia -0 -1 92 1023 4 N 3.7
Ieri h: 21:00 foschia Foschia 1 1 100 1023 5 N 0
Ieri h: 20:30 sereno Sereno 1 0 93 1023 6 N 3.7
Ieri h: 20:00 sereno Sereno 1 0 93 1023 6 N 3.7
Ieri h: 19:30 sereno Sereno 2 1 93 1023 8 N 3.7
Ieri h: 19:00 sereno Sereno 2 1 93 1023 7 N 1.8
Ieri h: 18:30 sereno Sereno 3 2 93 1023 10 N 5.5
Ieri h: 18:00 sereno Sereno 3 2 93 1023 9 N 0
Ieri h: 17:00 sereno Sereno 5 2 80 1023 10 N 0
Ieri h: 16:00 sereno Sereno 10 3 61 1022 10 N 3.7
Ieri h: 15:30 sereno Sereno 10 4 66 1023 10 N 3.7
Ieri h: 15:00 sereno Sereno 10 4 66 1023 10 N 5.5
Ieri h: 14:30 sereno Sereno 10 3 61 1023 10 N 3.7
Ieri h: 14:00 sereno Sereno 10 3 61 1024 10 N 3.7
Ieri h: 13:30 sereno Sereno 9 4 70 1024 10 N 5.5
Ieri h: 13:00 sereno Sereno 9 3 66 1025 10 N 3.7
Ieri h: 12:30 sereno Sereno 8 4 75 1025 10 N 3.7
Ieri h: 12:00 sereno Sereno 7 3 75 1026 10 N 1.8